Time,TemperatureF,DewpointF,PressureIn,WindDirection,WindDirectionDegrees,WindSpeedMPH,WindSpeedGustMPH,Humidity,HourlyPrecipIn,Conditions,Clouds,dailyrainin,SoftwareType,DateUTC
2013-01-10 00:02:00,36.0,32.1,29.55,North,0,2.5,3.6,86,0.00,,,0.00,WUHU216HW,2013-01-10 07:02:00,
2013-01-10 00:12:00,36.0,31.9,29.55,NNE,23,2.2,3.4,85,0.00,,,0.00,WUHU216HW,2013-01-10 07:12:00,
2013-01-10 00:22:00,35.8,31.7,29.55,NNE,23,3.1,4.0,85,0.00,,,0.00,WUHU216HW,2013-01-10 07:22:00,
2013-01-10 00:32:00,36.0,31.9,29.55,ENE,68,2.5,3.8,85,0.00,,,0.00,WUHU216HW,2013-01-10 07:32:00,
2013-01-10 00:42:00,36.2,31.8,29.55,NE,45,5.4,5.4,84,0.00,,,0.00,WUHU216HW,2013-01-10 07:42:00,
2013-01-10 00:52:00,36.0,31.6,29.55,North,0,3.1,4.7,84,0.00,,,0.00,WUHU216HW,2013-01-10 07:52:00,
2013-01-10 01:02:00,36.2,31.8,29.55,NE,45,2.5,4.0,84,0.00,,,0.00,WUHU216HW,2013-01-10 08:02:00,
2013-01-10 01:12:00,36.4,32.0,29.55,NNE,23,1.6,2.7,84,0.00,,,0.00,WUHU216HW,2013-01-10 08:12:00,
2013-01-10 01:22:00,36.7,32.3,29.55,NE,45,2.2,3.1,84,0.00,,,0.00,WUHU216HW,2013-01-10 08:22:00,
2013-01-10 01:32:00,36.4,31.7,29.55,North,0,1.3,3.4,83,0.00,,,0.00,WUHU216HW,2013-01-10 08:32:00,
2013-01-10 01:42:00,36.7,32.1,29.56,East,90,1.3,1.6,83,0.00,,,0.00,WUHU216HW,2013-01-10 08:42:00,
2013-01-10 01:52:00,36.9,32.2,29.55,NE,45,1.6,1.6,83,0.00,,,0.00,WUHU216HW,2013-01-10 08:52:00,
2013-01-10 02:02:00,36.9,31.9,29.55,NE,45,1.8,2.5,82,0.00,,,0.00,WUHU216HW,2013-01-10 09:02:00,
2013-01-10 02:12:00,36.9,32.2,29.55,ENE,68,0.9,2.7,83,0.00,,,0.00,WUHU216HW,2013-01-10 09:12:00,
2013-01-10 02:22:00,37.1,32.0,29.55,East,90,1.1,2.5,82,0.00,,,0.00,WUHU216HW,2013-01-10 09:22:00,
2013-01-10 02:32:00,37.1,32.0,29.56,ENE,68,1.1,1.8,82,0.00,,,0.00,WUHU216HW,2013-01-10 09:32:00,
2013-01-10 02:42:00,37.3,32.2,29.55,ENE,68,0.0,1.3,82,0.00,,,0.00,WUHU216HW,2013-01-10 09:42:00,
2013-01-10 02:52:00,37.4,32.4,29.55,East,90,0.9,1.1,82,0.00,,,0.00,WUHU216HW,2013-01-10 09:52:00,
2013-01-10 03:02:00,37.4,32.4,29.55,ESE,113,1.1,1.3,82,0.00,,,0.00,WUHU216HW,2013-01-10 10:02:00,
2013-01-10 03:13:00,37.4,32.4,29.55,East,90,0.4,1.1,82,0.00,,,0.00,WUHU216HW,2013-01-10 10:13:00,
2013-01-10 03:23:00,37.4,32.1,29.55,NNE,23,0.9,0.9,81,0.00,,,0.00,WUHU216HW,2013-01-10 10:23:00,
2013-01-10 03:33:00,37.6,32.3,29.55,NNE,23,0.2,0.2,81,0.00,,,0.00,WUHU216HW,2013-01-10 10:33:00,
2013-01-10 03:43:00,37.4,32.1,29.54,NNE,23,1.1,2.0,81,0.00,,,0.00,WUHU216HW,2013-01-10 10:43:00,
2013-01-10 03:53:00,37.4,32.1,29.53,ENE,68,0.9,1.8,81,0.00,,,0.00,WUHU216HW,2013-01-10 10:53:00,
2013-01-10 04:03:00,37.3,32.0,29.53,ENE,68,0.0,0.9,81,0.00,,,0.00,WUHU216HW,2013-01-10 11:03:00,
2013-01-10 04:13:00,37.4,32.1,29.53,ENE,68,0.4,0.7,81,0.00,,,0.00,WUHU216HW,2013-01-10 11:13:00,
2013-01-10 04:23:00,37.4,32.1,29.53,ENE,68,0.4,0.4,81,0.00,,,0.00,WUHU216HW,2013-01-10 11:23:00,
2013-01-10 04:33:00,37.4,32.1,29.53,ENE,68,0.0,0.4,81,0.00,,,0.00,WUHU216HW,2013-01-10 11:33:00,
2013-01-10 04:43:00,37.3,32.0,29.53,ENE,68,0.0,0.0,81,0.00,,,0.00,WUHU216HW,2013-01-10 11:43:00,
2013-01-10 04:53:00,37.4,32.1,29.53,ENE,68,0.0,0.0,81,0.00,,,0.00,WUHU216HW,2013-01-10 11:53:00,
2013-01-10 05:03:00,37.3,32.0,29.53,ENE,68,0.0,0.0,81,0.00,,,0.00,WUHU216HW,2013-01-10 12:03:00,
2013-01-10 05:13:00,37.4,32.1,29.52,ENE,68,0.0,0.4,81,0.00,,,0.00,WUHU216HW,2013-01-10 12:13:00,
2013-01-10 05:23:00,37.1,31.8,29.52,ENE,68,1.3,1.3,81,0.00,,,0.00,WUHU216HW,2013-01-10 12:23:00,
2013-01-10 05:34:00,36.7,31.7,29.52,ENE,68,0.4,1.3,82,0.00,,,0.00,WUHU216HW,2013-01-10 12:34:00,
2013-01-10 05:44:00,36.4,31.3,29.53,ENE,68,0.4,1.1,82,0.00,,,0.00,WUHU216HW,2013-01-10 12:44:00,
2013-01-10 05:54:00,35.8,31.2,29.53,ENE,68,1.1,4.3,83,0.00,,,0.00,WUHU216HW,2013-01-10 12:54:00,
2013-01-10 06:04:00,35.5,31.1,29.52,ENE,68,1.8,2.5,84,0.00,,,0.00,WUHU216HW,2013-01-10 13:04:00,
2013-01-10 06:14:00,35.3,30.9,29.52,ENE,68,0.9,2.0,84,0.00,,,0.00,WUHU216HW,2013-01-10 13:14:00,
2013-01-10 06:24:00,35.3,30.9,29.53,ENE,68,0.9,1.8,84,0.00,,,0.00,WUHU216HW,2013-01-10 13:24:00,
2013-01-10 06:34:00,35.5,31.1,29.53,ENE,68,1.1,1.1,84,0.00,,,0.00,WUHU216HW,2013-01-10 13:34:00,
2013-01-10 06:44:00,35.3,30.9,29.52,ENE,68,1.8,2.5,84,0.00,,,0.00,WUHU216HW,2013-01-10 13:44:00,
2013-01-10 06:54:00,34.9,30.5,29.52,ENE,68,1.3,2.5,84,0.00,,,0.00,WUHU216HW,2013-01-10 13:54:00,
2013-01-10 07:04:00,34.7,30.3,29.53,ENE,68,1.1,2.2,84,0.00,,,0.00,WUHU216HW,2013-01-10 14:04:00,
2013-01-10 07:14:00,34.4,30.2,29.52,ENE,68,1.1,3.4,85,0.01,,,0.01,WUHU216HW,2013-01-10 14:14:00,
2013-01-10 07:24:00,34.4,30.2,29.53,ENE,68,1.3,1.8,85,0.01,,,0.01,WUHU216HW,2013-01-10 14:24:00,
2013-01-10 07:34:00,34.6,30.4,29.53,ENE,68,1.3,1.6,85,0.03,,,0.04,WUHU216HW,2013-01-10 14:34:00,
2013-01-10 07:44:00,34.4,30.2,29.53,ENE,68,2.5,2.5,85,0.04,,,0.04,WUHU216HW,2013-01-10 14:44:00,
2013-01-10 07:54:00,34.2,29.8,29.53,ENE,68,3.6,3.6,84,0.05,,,0.06,WUHU216HW,2013-01-10 14:54:00,
2013-01-10 08:04:00,34.2,30.1,29.53,ENE,68,2.0,3.4,85,0.06,,,0.06,WUHU216HW,2013-01-10 15:04:00,
2013-01-10 08:14:00,33.8,29.7,29.53,ENE,68,2.0,2.9,85,0.05,,,0.06,WUHU216HW,2013-01-10 15:14:00,
2013-01-10 08:24:00,34.0,29.9,29.53,ENE,68,0.7,1.8,85,0.04,,,0.06,WUHU216HW,2013-01-10 15:24:00,
2013-01-10 08:35:00,34.0,29.6,29.53,ENE,68,0.7,1.8,84,0.02,,,0.06,WUHU216HW,2013-01-10 15:35:00,
2013-01-10 08:45:00,33.8,29.4,29.53,ENE,68,0.9,2.0,84,0.01,,,0.06,WUHU216HW,2013-01-10 15:45:00,
2013-01-10 08:55:00,33.3,28.9,29.53,ENE,68,1.3,4.0,84,0.01,,,0.06,WUHU216HW,2013-01-10 15:55:00,
2013-01-10 09:05:00,32.8,28.4,29.53,ENE,68,2.5,4.7,84,0.00,,,0.06,WUHU216HW,2013-01-10 16:05:00,
2013-01-10 09:15:00,32.4,28.5,29.53,ENE,68,1.8,3.4,85,0.00,,,0.06,WUHU216HW,2013-01-10 16:15:00,
2013-01-10 09:25:00,32.4,28.5,29.52,ENE,68,1.8,3.4,85,0.00,,,0.06,WUHU216HW,2013-01-10 16:25:00,
2013-01-10 09:35:00,32.2,28.3,29.53,ENE,68,1.6,2.0,85,0.00,,,0.06,WUHU216HW,2013-01-10 16:35:00,
2013-01-10 09:46:00,32.4,28.5,29.53,ENE,68,0.4,1.8,85,0.00,,,0.06,WUHU216HW,2013-01-10 16:46:00,
2013-01-10 09:56:00,32.6,28.5,29.53,ENE,68,0.2,1.1,85,0.00,,,0.06,WUHU216HW,2013-01-10 16:56:00,
2013-01-10 10:06:00,32.8,28.7,29.53,ENE,68,0.9,1.1,85,0.01,,,0.08,WUHU216HW,2013-01-10 17:06:00,
2013-01-10 10:16:00,32.8,28.7,29.54,ENE,68,1.1,1.8,85,0.01,,,0.08,WUHU216HW,2013-01-10 17:16:00,
2013-01-10 10:26:00,32.8,28.7,29.54,ENE,68,2.2,2.2,85,0.01,,,0.08,WUHU216HW,2013-01-10 17:26:00,
2013-01-10 10:36:00,32.4,28.7,29.54,ENE,68,1.8,3.6,86,0.02,,,0.09,WUHU216HW,2013-01-10 17:36:00,
2013-01-10 10:46:00,32.0,28.4,29.54,ENE,68,1.3,1.8,86,0.02,,,0.09,WUHU216HW,2013-01-10 17:46:00,
2013-01-10 10:56:00,32.0,28.6,29.53,ENE,68,1.6,3.1,87,0.04,,,0.11,WUHU216HW,2013-01-10 17:56:00,
2013-01-10 11:06:00,32.0,29.0,29.53,ENE,68,1.1,3.1,88,0.03,,,0.11,WUHU216HW,2013-01-10 18:06:00,
2013-01-10 11:16:00,32.0,29.0,29.53,ENE,68,1.8,2.5,88,0.04,,,0.12,WUHU216HW,2013-01-10 18:16:00,
2013-01-10 11:26:00,32.0,29.0,29.53,ENE,68,0.4,3.4,88,0.05,,,0.13,WUHU216HW,2013-01-10 18:26:00,
2013-01-10 11:36:00,32.2,29.1,29.52,ENE,68,2.0,3.4,88,0.05,,,0.13,WUHU216HW,2013-01-10 18:36:00,
2013-01-10 11:46:00,32.4,29.3,29.52,ENE,68,2.7,4.3,88,0.05,,,0.13,WUHU216HW,2013-01-10 18:46:00,
2013-01-10 11:56:00,32.4,29.0,29.52,ENE,68,1.3,3.4,87,0.04,,,0.15,WUHU216HW,2013-01-10 18:56:00,
2013-01-10 12:06:00,32.6,29.2,29.52,ENE,68,2.0,2.0,87,0.05,,,0.16,WUHU216HW,2013-01-10 19:06:00,
2013-01-10 12:16:00,32.8,29.4,29.52,ENE,68,1.8,2.0,87,0.04,,,0.17,WUHU216HW,2013-01-10 19:16:00,
2013-01-10 12:26:00,32.8,29.0,29.52,ENE,68,1.3,2.0,86,0.04,,,0.17,WUHU216HW,2013-01-10 19:26:00,
2013-01-10 12:36:00,32.8,29.0,29.51,ENE,68,1.1,2.5,86,0.03,,,0.17,WUHU216HW,2013-01-10 19:36:00,
2013-01-10 12:46:00,32.6,28.9,29.50,ENE,68,1.8,2.5,86,0.03,,,0.18,WUHU216HW,2013-01-10 19:46:00,
2013-01-10 12:56:00,32.4,28.7,29.50,ENE,68,2.5,2.7,86,0.03,,,0.18,WUHU216HW,2013-01-10 19:56:00,
2013-01-10 13:06:00,32.4,28.7,29.50,ENE,68,0.2,1.8,86,0.03,,,0.19,WUHU216HW,2013-01-10 20:06:00,
2013-01-10 13:17:00,32.6,28.9,29.51,ENE,68,1.1,1.6,86,0.02,,,0.19,WUHU216HW,2013-01-10 20:17:00,
2013-01-10 13:27:00,32.9,29.2,29.51,ENE,68,0.4,1.6,86,0.02,,,0.19,WUHU216HW,2013-01-10 20:27:00,
2013-01-10 13:37:00,32.8,28.7,29.51,ENE,68,0.4,2.0,85,0.02,,,0.20,WUHU216HW,2013-01-10 20:37:00,
2013-01-10 13:47:00,32.8,28.7,29.50,ENE,68,0.7,1.6,85,0.02,,,0.20,WUHU216HW,2013-01-10 20:47:00,
2013-01-10 13:57:00,32.8,28.7,29.51,ENE,68,0.7,1.6,85,0.02,,,0.21,WUHU216HW,2013-01-10 20:57:00,
2013-01-10 14:07:00,32.4,28.5,29.51,ENE,68,2.5,2.7,85,0.02,,,0.21,WUHU216HW,2013-01-10 21:07:00,
2013-01-10 14:18:00,31.9,28.2,29.51,ENE,68,1.8,3.4,86,0.03,,,0.22,WUHU216HW,2013-01-10 21:18:00,
2013-01-10 14:28:00,31.7,28.0,29.51,ENE,68,2.5,2.5,86,0.03,,,0.22,WUHU216HW,2013-01-10 21:28:00,
2013-01-10 14:38:00,31.7,28.0,29.52,ENE,68,1.8,2.0,86,0.03,,,0.23,WUHU216HW,2013-01-10 21:38:00,
2013-01-10 14:48:00,31.7,28.0,29.52,ENE,68,1.8,1.8,86,0.03,,,0.23,WUHU216HW,2013-01-10 21:48:00,
2013-01-10 14:58:00,31.9,28.2,29.52,ENE,68,2.5,2.5,86,0.02,,,0.23,WUHU216HW,2013-01-10 21:58:00,
2013-01-10 15:08:00,31.7,28.0,29.53,ENE,68,1.6,2.5,86,0.01,,,0.23,WUHU216HW,2013-01-10 22:08:00,
2013-01-10 15:18:00,31.7,28.0,29.53,ENE,68,1.3,2.7,86,0.02,,,0.24,WUHU216HW,2013-01-10 22:18:00,
2013-01-10 15:28:00,31.7,28.0,29.53,ENE,68,2.0,2.0,86,0.01,,,0.24,WUHU216HW,2013-01-10 22:28:00,
2013-01-10 15:38:00,31.3,27.6,29.53,ENE,68,1.1,2.0,86,0.01,,,0.24,WUHU216HW,2013-01-10 22:38:00,
2013-01-10 15:49:00,31.3,27.6,29.53,ENE,68,1.1,1.8,86,0.01,,,0.24,WUHU216HW,2013-01-10 22:49:00,
2013-01-10 15:59:00,31.0,27.5,29.53,ENE,68,1.1,2.5,87,0.02,,,0.25,WUHU216HW,2013-01-10 22:59:00,
2013-01-10 16:09:00,31.0,27.5,29.52,ENE,68,1.6,2.7,87,0.02,,,0.25,WUHU216HW,2013-01-10 23:09:00,
2013-01-10 16:19:00,30.6,27.6,29.52,ENE,68,3.4,3.4,88,0.01,,,0.25,WUHU216HW,2013-01-10 23:19:00,
2013-01-10 16:29:00,30.4,27.4,29.53,ENE,68,1.6,2.5,88,0.02,,,0.26,WUHU216HW,2013-01-10 23:29:00,
2013-01-10 16:39:00,29.9,26.8,29.53,ENE,68,3.4,3.4,88,0.02,,,0.26,WUHU216HW,2013-01-10 23:39:00,
2013-01-10 16:49:00,29.9,26.8,29.53,ENE,68,0.9,2.7,88,0.02,,,0.27,WUHU216HW,2013-01-10 23:49:00,
2013-01-10 16:59:00,29.5,26.5,29.53,ENE,68,0.2,3.6,88,0.02,,,0.27,WUHU216HW,2013-01-10 23:59:00,
2013-01-10 17:09:00,29.9,26.8,29.54,ENE,68,1.8,1.8,88,0.03,,,0.28,WUHU216HW,2013-01-11 00:09:00,
2013-01-10 17:19:00,29.9,26.8,29.53,ENE,68,2.0,2.0,88,0.02,,,0.28,WUHU216HW,2013-01-11 00:19:00,
2013-01-10 17:29:00,29.5,26.5,29.53,ENE,68,1.8,2.7,88,0.02,,,0.28,WUHU216HW,2013-01-11 00:29:00,
2013-01-10 17:39:00,29.3,26.3,29.53,ENE,68,1.8,2.9,88,0.02,,,0.28,WUHU216HW,2013-01-11 00:39:00,
2013-01-10 17:49:00,29.3,26.3,29.54,ENE,68,2.5,3.1,88,0.01,,,0.28,WUHU216HW,2013-01-11 00:49:00,
2013-01-10 17:59:00,29.2,25.7,29.53,ENE,68,1.8,2.5,87,0.01,,,0.28,WUHU216HW,2013-01-11 00:59:00,
2013-01-10 18:09:00,28.8,25.4,29.54,ENE,68,1.8,3.8,87,0.00,,,0.28,WUHU216HW,2013-01-11 01:09:00,
2013-01-10 18:19:00,28.1,25.0,29.54,ENE,68,2.0,2.5,88,0.01,,,0.29,WUHU216HW,2013-01-11 01:19:00,
2013-01-10 18:29:00,28.1,25.0,29.55,ENE,68,2.9,6.3,88,0.01,,,0.29,WUHU216HW,2013-01-11 01:29:00,
2013-01-10 18:39:00,28.3,25.2,29.55,ENE,68,3.8,5.1,88,0.01,,,0.29,WUHU216HW,2013-01-11 01:39:00,
2013-01-10 18:49:00,28.1,24.1,29.56,ENE,68,3.6,4.0,85,0.01,,,0.29,WUHU216HW,2013-01-11 01:49:00,
2013-01-10 18:59:00,28.1,24.1,29.56,ENE,68,3.8,4.5,85,0.01,,,0.29,WUHU216HW,2013-01-11 01:59:00,
2013-01-10 19:09:00,27.7,23.5,29.56,ENE,68,1.3,4.0,84,0.00,,,0.29,WUHU216HW,2013-01-11 02:09:00,
2013-01-10 19:19:00,27.5,23.3,29.56,ENE,68,1.1,3.1,84,0.00,,,0.29,WUHU216HW,2013-01-11 02:19:00,
2013-01-10 19:29:00,27.5,23.3,29.57,ENE,68,1.1,3.4,84,0.00,,,0.29,WUHU216HW,2013-01-11 02:29:00,
2013-01-10 19:39:00,27.2,23.0,29.57,ENE,68,1.3,1.8,84,0.00,,,0.29,WUHU216HW,2013-01-11 02:39:00,
2013-01-10 19:50:00,26.8,22.9,29.57,ENE,68,1.1,1.6,85,0.00,,,0.29,WUHU216HW,2013-01-11 02:50:00,
2013-01-10 20:00:00,26.6,22.7,29.58,ENE,68,1.8,1.8,85,0.00,,,0.29,WUHU216HW,2013-01-11 03:00:00,
2013-01-10 20:10:00,26.5,22.2,29.58,ENE,68,0.2,3.1,84,0.00,,,0.29,WUHU216HW,2013-01-11 03:10:00,
2013-01-10 20:20:00,26.5,22.2,29.58,ENE,68,1.6,2.5,84,0.00,,,0.29,WUHU216HW,2013-01-11 03:20:00,
2013-01-10 20:30:00,26.3,21.8,29.58,ENE,68,0.9,2.2,83,0.00,,,0.29,WUHU216HW,2013-01-11 03:30:00,
2013-01-10 20:40:00,26.1,21.1,29.59,ENE,68,1.3,3.1,81,0.00,,,0.29,WUHU216HW,2013-01-11 03:40:00,
2013-01-10 20:50:00,25.9,20.9,29.60,ENE,68,0.4,2.5,81,0.00,,,0.29,WUHU216HW,2013-01-11 03:50:00,
2013-01-10 21:00:00,26.1,21.1,29.60,ENE,68,1.1,3.1,81,0.00,,,0.29,WUHU216HW,2013-01-11 04:00:00,
2013-01-10 21:10:00,26.3,20.9,29.60,ENE,68,2.0,2.5,80,0.00,,,0.29,WUHU216HW,2013-01-11 04:10:00,
2013-01-10 21:20:00,25.9,20.6,29.61,ENE,68,0.9,2.9,80,0.00,,,0.29,WUHU216HW,2013-01-11 04:20:00,
2013-01-10 21:30:00,25.7,20.4,29.61,ENE,68,1.8,1.8,80,0.00,,,0.29,WUHU216HW,2013-01-11 04:30:00,
2013-01-10 21:40:00,25.4,20.1,29.61,ENE,68,0.4,2.0,80,0.00,,,0.29,WUHU216HW,2013-01-11 04:40:00,
2013-01-10 21:50:00,24.8,19.0,29.61,ENE,68,1.1,3.6,78,0.00,,,0.29,WUHU216HW,2013-01-11 04:50:00,
2013-01-10 22:00:00,24.8,18.6,29.62,ENE,68,3.4,3.4,77,0.00,,,0.29,WUHU216HW,2013-01-11 05:00:00,
2013-01-10 22:10:00,24.7,18.2,29.62,ENE,68,2.0,3.4,76,0.00,,,0.29,WUHU216HW,2013-01-11 05:10:00,
2013-01-10 22:20:00,24.1,17.9,29.62,ENE,68,0.7,4.5,77,0.00,,,0.29,WUHU216HW,2013-01-11 05:20:00,
2013-01-10 22:30:00,23.9,17.8,29.62,ENE,68,0.9,2.5,77,0.00,,,0.29,WUHU216HW,2013-01-11 05:30:00,
2013-01-10 22:40:00,23.9,17.8,29.63,ENE,68,0.9,2.5,77,0.00,,,0.29,WUHU216HW,2013-01-11 05:40:00,
2013-01-10 22:50:00,23.9,17.5,29.62,ENE,68,2.2,3.8,76,0.00,,,0.29,WUHU216HW,2013-01-11 05:50:00,
2013-01-10 23:00:00,23.8,17.7,29.62,ENE,68,0.4,1.3,77,0.00,,,0.29,WUHU216HW,2013-01-11 06:00:00,
2013-01-10 23:10:00,23.8,17.7,29.63,ENE,68,0.9,1.1,77,0.00,,,0.29,WUHU216HW,2013-01-11 06:10:00,
2013-01-10 23:21:00,23.4,17.3,29.63,ENE,68,0.9,1.6,77,0.00,,,0.29,WUHU216HW,2013-01-11 06:21:00,
2013-01-10 23:31:00,23.0,16.9,29.63,ENE,68,0.0,1.1,77,0.00,,,0.29,WUHU216HW,2013-01-11 06:31:00,
2013-01-10 23:41:00,22.9,16.8,29.63,ENE,68,1.1,1.8,77,0.00,,,0.29,WUHU216HW,2013-01-11 06:41:00,
2013-01-10 23:51:00,22.7,16.6,29.64,ENE,68,0.4,1.6,77,0.00,,,0.29,WUHU216HW,2013-01-11 06:51:00,